[[{"header":{"parameterUnit":"m.s-1","parameterCategory":2,"la1":30.2991,"la2":30.254,"lo1":-89.0895,"lo2":-89.0444,"dx":0.0017,"dy":0.0017,"nx":28,"ny":28,"refTime":"2022-12-07T03:00:00:Z","depth":"0","parameterNumber":2,"parameterNumberName":"U-component_of_CURRENTS"},"data":[0,0,0,0,0,0,0,0,0,0,0,0,0,0,0,0,0,0,0,0,0,0,0,0,0,0,0,0,0,0,0,0,0,0,0,0,0,0,0,0,0,0,0,0,0,0,0,0,0,0,0,0,0,0,0,0,0,0,0.3659,0.3658,0,0.3597,0.3596,0.3595,0.3572,0.3573,0.3574,0.3574,0.3401,0.3396,0.339,0,0,0,0,0,0,0,0,0,0,0,0,0,0.3576,0.3578,0.3659,0.3658,0.3658,0.3597,0.3596,0.3594,0.3572,0.3573,0.3574,0.3575,0.3403,0.3396,0.339,0,0,0,0,0,0,0,0,0,0,0,0,0,0.3566,0.3578,0.3659,0.3645,0.3644,0.3598,0.3596,0.3594,0.3572,0.3573,0.3574,0.3575,0.3405,0.3397,0.3389,0.3313,0,0,0.3364,0.336,0,0,0,0,0,0,0,0,0.3567,0.3569,0.3647,0.3646,0.3644,0.36,0.3503,0.3497,0.3571,0.3591,0.3574,0.3576,0.346,0.3448,0.3425,0.3305,0.3298,0.3363,0.3358,0.3355,0.3353,0,0,0,0,0,0,0,0.3568,0.357,0.3627,0.3647,0.3645,0.358,0.3581,0.3501,0.3512,0.359,0.359,0.3594,0.3458,0.3433,0.3421,0.3295,0.3364,0.3356,0.3351,0.3348,0.3253,0.3255,0,0,0,0,0,0,0.3598,0.3572,0.3629,0.3626,0.3616,0.3582,0.3583,0.3607,0.3515,0.3506,0.3593,0.3593,0.3446,0.343,0.3414,0.3394,0.3355,0.3347,0.3343,0.325,0.3253,0.3256,0,0,0,0,0,0,0.3597,0.3605,0.3632,0.3601,0.3601,0.3584,0.361,0.3605,0.3604,0.352,0.3507,0.36,0.3447,0.3426,0.3377,0.3385,0.3344,0.3336,0.3248,0.3251,0.3255,0.3305,0,0,0,0,0,0,0.3595,0.3605,0.3618,0.3605,0.3605,0.3623,0.3609,0.3603,0.3606,0.3606,0.3521,0.3506,0.3446,0.339,0.3369,0.3373,0.333,0.3245,0.3249,0.3253,0.3301,0.331,0.3318,0,0,0,0,0,0.3593,0.3592,0.3619,0.3626,0.3629,0.3624,0.3617,0.3602,0.3606,0.3605,0.3562,0.3509,0.3405,0.3383,0.3359,0.3361,0.3243,0.3248,0.3253,0.3297,0.3308,0.3318,0,0,0,0,0,0,0.3522,0.3591,0.362,0.3632,0.3647,0.3624,0.3601,0.3615,0.3579,0.3569,0.3508,0.3488,0.3462,0.3412,0.3392,0.3359,0.3326,0.3327,0.3368,0.3378,0.3387,0.3384,0.3323,0,0,0,0,0,0.3529,0.3568,0.3609,0.3613,0.3623,0.3623,0.3616,0.362,0.3594,0.3581,0.3537,0.3493,0.3459,0.3421,0.338,0.3327,0.3302,0.3329,0.3338,0.3345,0.3334,0.3332,0.3339,0.3273,0.3273,0.3273,0,0,0.3497,0.3539,0.3556,0.3604,0.36,0.3608,0.3619,0.3611,0.3618,0.3561,0.3535,0.3514,0.346,0.3425,0.3409,0.338,0.3355,0.3352,0.3358,0.3342,0.3338,0.3344,0.3349,0.3277,0.3276,0.3275,0,0,0.3449,0.3497,0.352,0.3541,0.3571,0.358,0.3596,0.3604,0.3609,0.3592,0.3576,0.3568,0.3491,0.3468,0.3443,0.3473,0.3414,0.3474,0.3483,0.3482,0.3486,0.349,0.3471,0.3472,0.3461,0.3462,0.3462,0,0.3404,0.3453,0.3512,0.3529,0.3536,0.3581,0.3583,0.3592,0.3587,0.3585,0.3593,0.3547,0.3512,0.3479,0.3508,0.3487,0.3472,0.3437,0.3489,0.3492,0.3495,0.3474,0.3475,0.3465,0.3464,0.3464,0.3464,0,0.3395,0.3417,0.3414,0.348,0.3494,0.3493,0.354,0.3554,0.3577,0.3589,0.359,0.3566,0.3536,0.3549,0.3526,0.3535,0.3516,0.3511,0.3452,0.3504,0.348,0.348,0.3469,0.3468,0.3467,0.3466,0,0,0.3323,0.3402,0.3396,0.3416,0.3471,0.3476,0.3497,0.3527,0.3534,0.3558,0.3556,0.3556,0.3566,0.3544,0.3538,0.3546,0.3568,0.3537,0.3535,0.3499,0.3552,0.3426,0.3413,0.3569,0.3569,0.357,0.3529,0,0.3291,0.3323,0.337,0.3369,0.3385,0.3431,0.3447,0.3479,0.3505,0.3515,0.3536,0.3531,0.3558,0.355,0.3567,0.3575,0.3569,0.3578,0.3523,0.3521,0.3387,0.3409,0.3192,0.3127,0.3528,0.3528,0.3528,0,0.3269,0.3299,0.331,0.3341,0.3349,0.3354,0.3386,0.3406,0.3441,0.3461,0.3475,0.3493,0.3518,0.3535,0.356,0.3565,0.3558,0.3565,0.3563,0.342,0.3393,0.3142,0.311,0.3035,0.3526,0.3527,0.3527,0,0.3215,0.3242,0.3255,0.3267,0.3319,0.3317,0.3338,0.3378,0.3392,0.3422,0.3429,0.3463,0.3471,0.3499,0.3539,0.3545,0.3557,0.3558,0.3428,0.3419,0.3207,0.3178,0.3071,0.3549,0.355,0.355,0.355,0,0.3175,0.3164,0.3228,0.3232,0.3223,0.3275,0.3266,0.3294,0.3329,0.334,0.3392,0.3403,0.3466,0.3488,0.3521,0.3473,0.3539,0.3418,0.3396,0.3221,0.3194,0.3096,0.3094,0.3548,0.3548,0.3549,0.3549,0,0.3095,0.3145,0.3145,0.3193,0.3199,0.3188,0.3215,0.3221,0.3265,0.3276,0.3287,0.3351,0.3377,0.3423,0.3455,0.3417,0.3284,0.3369,0.3151,0.3102,0.2869,0.2879,0.2628,0.2569,0.319,0.3186,0.3183,0,0.3062,0.3067,0.3101,0.31,0.3109,0.311,0.3121,0.3173,0.319,0.325,0.3253,0.3277,0.3292,0.3279,0.3209,0.3176,0.3145,0.2936,0.2896,0.2807,0.2804,0.2728,0.2695,0.2647,0.264,0.2634,0.2629,0,0.2991,0.3004,0.3013,0.3026,0.3027,0.3024,0.3043,0.3048,0.3123,0.313,0.315,0.3164,0.3113,0.2962,0.2894,0.2858,0.2746,0.2811,0.2773,0.24,0.2254,0.2203,0.2737,0.2578,0.2583,0.2587,0.2589,0.2592,0.2921,0.2911,0.2949,0.2938,0.2945,0.2946,0.2902,0.2939,0.2941,0.2916,0.3013,0.293,0.2757,0.261,0.2573,0.2277,0.2377,0.2153,0.2183,0.2124,0.2012,0.2421,0.2209,0.2212,0.2214,0.2217,0.2219,0,0.2835,0.2857,0.2866,0.2858,0.2832,0.2862,0.2857,0.2782,0.2735,0.2732,0.2707,0.2445,0.225,0.2107,0.1779,0.1662,0.1619,0.1618,0.1482,0.1498,0.1886,0.1809,0.1433,0.1433,0.1433,0.1433,0.1433,0.1433,0.2802,0.2787,0.2805,0.2757,0.274,0.2634,0.2598,0.2503,0.2449,0.2237,0.2051,0.1982,0.1775,0.1484,0.1251,0.1223,0.1181,0.104,0.1181,0.1479,0.1533,0.1584,0.1511,0.1078,0.1077,0.0663,0.066,0.0658]},{"header":{"parameterUnit":"m.s-1","parameterCategory":2,"la1":30.2991,"la2":30.254,"lo1":-89.0895,"lo2":-89.0444,"dx":0.0017,"dy":0.0017,"nx":28,"ny":28,"refTime":"2022-12-07T03:00:00:Z","depth":"0","parameterNumber":3,"parameterNumberName":"V-component_of_CURRENTS"},"data":[0,0,0,0,0,0,0,0,0,0,0,0,0,0,0,0,0,0,0,0,0,0,0,0,0,0,0,0,0,0,0,0,0,0,0,0,0,0,0,0,0,0,0,0,0,0,0,0,0,0,0,0,0,0,0,0,0,0,-0.0481,-0.0481,0,-0.048,-0.048,-0.048,-0.0474,-0.0474,-0.0474,-0.0474,-0.0437,-0.0436,-0.0436,0,0,0,0,0,0,0,0,0,0,0,0,0,-0.0404,-0.0406,-0.0481,-0.0481,-0.0481,-0.048,-0.048,-0.048,-0.0475,-0.0474,-0.0474,-0.0474,-0.0438,-0.0437,-0.0436,0,0,0,0,0,0,0,0,0,0,0,0,0,-0.0423,-0.0406,-0.0481,-0.0479,-0.0479,-0.048,-0.048,-0.048,-0.0475,-0.0474,-0.0474,-0.0474,-0.0438,-0.0437,-0.0435,-0.043,0,0,-0.0431,-0.0431,0,0,0,0,0,0,0,0,-0.0422,-0.0426,-0.0479,-0.0479,-0.0479,-0.0478,-0.0439,-0.0461,-0.0475,-0.0476,-0.0474,-0.0474,-0.0448,-0.0446,-0.0446,-0.0428,-0.0426,-0.0431,-0.043,-0.043,-0.0429,0,0,0,0,0,0,0,-0.0421,-0.0426,-0.048,-0.0479,-0.0479,-0.0452,-0.0455,-0.0443,-0.0462,-0.0476,-0.0475,-0.0476,-0.0447,-0.0447,-0.0445,-0.0426,-0.0431,-0.043,-0.0429,-0.0429,-0.0397,-0.0397,0,0,0,0,0,0,-0.0427,-0.0425,-0.048,-0.048,-0.045,-0.0454,-0.0457,-0.0478,-0.0462,-0.046,-0.0476,-0.0476,-0.0449,-0.0446,-0.0443,-0.0413,-0.043,-0.0428,-0.0428,-0.0397,-0.0397,-0.0397,0,0,0,0,0,0,-0.0425,-0.0432,-0.0481,-0.0451,-0.0456,-0.0456,-0.0478,-0.0478,-0.0481,-0.0463,-0.046,-0.048,-0.0449,-0.0445,-0.0435,-0.0412,-0.0428,-0.0427,-0.0397,-0.0397,-0.0397,-0.0365,0,0,0,0,0,0,-0.0423,-0.0432,-0.0446,-0.0453,-0.0458,-0.048,-0.0478,-0.0478,-0.0481,-0.0481,-0.0465,-0.0462,-0.0449,-0.0437,-0.0433,-0.041,-0.0426,-0.0397,-0.0397,-0.0397,-0.0367,-0.0364,-0.0363,0,0,0,0,0,-0.0421,-0.0434,-0.0447,-0.0453,-0.0479,-0.0481,-0.048,-0.0478,-0.0482,-0.0481,-0.0473,-0.0462,-0.0434,-0.0436,-0.0432,-0.0408,-0.0397,-0.0397,-0.0397,-0.0367,-0.0365,-0.0363,0,0,0,0,0,0,-0.0396,-0.0435,-0.045,-0.0473,-0.0479,-0.048,-0.0474,-0.0482,-0.0477,-0.0471,-0.0463,-0.0459,-0.0441,-0.0437,-0.0439,-0.0402,-0.0413,-0.0412,-0.0392,-0.0389,-0.0387,-0.0358,-0.0424,0,0,0,0,0,-0.0403,-0.0428,-0.0451,-0.0465,-0.0469,-0.0476,-0.0477,-0.0477,-0.0474,-0.0472,-0.0468,-0.0456,-0.0438,-0.0425,-0.0415,-0.0394,-0.0358,-0.0377,-0.0375,-0.0374,-0.0349,-0.0278,-0.0266,-0.0397,-0.0397,-0.0397,0,0,-0.0392,-0.0418,-0.0429,-0.0462,-0.0463,-0.0457,-0.0475,-0.0472,-0.0459,-0.0468,-0.0451,-0.0452,-0.0434,-0.0409,-0.04,-0.04,-0.0323,-0.0373,-0.0372,-0.0347,-0.0276,-0.0263,-0.0251,-0.0397,-0.0397,-0.0397,0,0,-0.0371,-0.041,-0.0419,-0.0426,-0.0437,-0.044,-0.0443,-0.0453,-0.0451,-0.0443,-0.044,-0.0426,-0.0415,-0.0386,-0.0371,-0.0353,-0.032,-0.0361,-0.0314,-0.0246,-0.0233,-0.0222,-0.0173,-0.0158,-0.0352,-0.0352,-0.0352,0,-0.0353,-0.0376,-0.0415,-0.0415,-0.0409,-0.0433,-0.0417,-0.0418,-0.0422,-0.0408,-0.0432,-0.0395,-0.0392,-0.0332,-0.033,-0.0342,-0.0307,-0.0322,-0.0239,-0.0227,-0.0216,-0.0168,-0.0152,-0.035,-0.0351,-0.0351,-0.0351,0,-0.0338,-0.0348,-0.0345,-0.0361,-0.0361,-0.035,-0.0358,-0.0355,-0.0364,-0.036,-0.0328,-0.0329,-0.0297,-0.0304,-0.031,-0.0233,-0.0236,-0.0248,-0.0237,-0.02,-0.0154,-0.0137,-0.0348,-0.0349,-0.0349,-0.035,0,0,-0.0305,-0.0332,-0.0326,-0.0318,-0.033,-0.0321,-0.0301,-0.0282,-0.0251,-0.0263,-0.0216,-0.0205,-0.021,-0.0193,-0.02,-0.0151,-0.0061,-0.0164,-0.0162,-0.0102,0.0086,0.0068,0.0084,-0.0054,-0.005,-0.0048,0.0082,0,-0.0271,-0.0263,-0.0283,-0.0247,-0.0237,-0.0246,-0.0223,-0.0207,-0.02,-0.0165,-0.0154,-0.012,-0.0165,-0.0147,-0.0103,-0.0067,-0.0012,-0.0095,0.0029,0.0033,0.0025,0.0105,0.0104,0.0219,0.0099,0.0102,0.0104,0,-0.024,-0.0241,-0.0213,-0.0193,-0.0187,-0.0168,-0.0125,-0.0107,-0.0067,-0.0057,-0.002,-0.002,0.0048,-0.0005,0.0106,0.0057,0.0081,0.01,0.0105,0.0097,0.0048,0.0163,0.0255,0.0185,0.0131,0.0129,0.0127,0,-0.0196,-0.0181,-0.0157,-0.0151,-0.0138,-0.0115,-0.0103,-0.007,-0.0038,0.0019,0.0059,0.0115,0.0161,0.0207,0.0233,0.0184,0.0358,0.0295,0.0304,0.0301,0.0331,0.0326,0.0389,0.0391,0.039,0.039,0.039,0,-0.0154,-0.0126,-0.0135,-0.0118,-0.0068,-0.0078,-0.0019,0.0004,0.005,0.0123,0.0121,0.0203,0.022,0.0301,0.0303,0.0377,0.0424,0.0348,0.0353,0.0337,0.0331,0.0294,0.0257,0.0395,0.0394,0.0393,0.0392,0,-0.0099,-0.0111,-0.0076,-0.0061,-0.0049,-0.0013,0.0025,0.0072,0.0105,0.0207,0.0234,0.0305,0.0423,0.044,0.0534,0.0481,0.0516,0.0547,0.0514,0.0512,0.0404,0.0369,0.0487,0.045,0.0572,0.0573,0.0573,0,-0.0072,-0.0053,-0.0028,-0.0004,0.0007,0.0047,0.0083,0.0106,0.0163,0.0288,0.0358,0.0476,0.0603,0.0712,0.0668,0.0697,0.0611,0.0642,0.0537,0.0436,0.0402,0.0372,0.033,0.0586,0.0587,0.0587,0.0588,0,-0.0007,-0.0003,0.0023,0.0061,0.01,0.015,0.0201,0.0254,0.0316,0.0418,0.0587,0.07,0.0793,0.0839,0.0817,0.0789,0.0587,0.0648,0.058,0.0463,0.0408,0.0361,0.0439,0.0592,0.0591,0.0591,0.0591,0.0591,0.0049,0.0074,0.0092,0.014,0.0188,0.0259,0.0322,0.04,0.052,0.0708,0.0774,0.0991,0.0954,0.0945,0.0864,0.0654,0.066,0.0562,0.0543,0.0533,0.0458,0.053,0.0653,0.0653,0.0653,0.0653,0.0653,0,0.0109,0.0124,0.0168,0.0226,0.0299,0.0304,0.0414,0.0495,0.0671,0.0877,0.1049,0.1179,0.1128,0.099,0.0725,0.0571,0.0485,0.0485,0.0442,0.0411,0.052,0.0473,0.0521,0.0521,0.0521,0.0521,0.0521,0.0521,0.0139,0.0177,0.019,0.0311,0.0366,0.0475,0.055,0.0691,0.085,0.1117,0.1286,0.1395,0.1284,0.0867,0.0563,0.0479,0.0354,0.036,0.0299,0.0348,0.0352,0.0356,0.0303,0.0314,0.0314,0.0182,0.0181,0.018]}],[{"header":{"parameterUnit":"m.s-1","parameterCategory":2,"la1":30.2991,"la2":30.254,"lo1":-89.0895,"lo2":-89.0444,"dx":0.0017,"dy":0.0017,"nx":28,"ny":28,"refTime":"2022-12-07T03:00:00:Z","depth":"2","parameterNumber":2,"parameterNumberName":"U-component_of_CURRENTS"},"data":[0,0,0,0,0,0,0,0,0,0,0,0,0,0,0,0,0,0,0,0,0,0,0,0,0,0,0,0,0,0,0,0,0,0,0,0,0,0,0,0,0,0,0,0,0,0,0,0,0,0,0,0,0,0,0,0,0,0,0.1632,0.1632,0,0.1679,0.168,0.1681,0.175,0.1751,0.1752,0.1752,0.1717,0.1715,0.1714,0,0,0,0,0,0,0,0,0,0,0,0,0,0.1601,0.1602,0.1632,0.1632,0.1632,0.1679,0.168,0.1681,0.175,0.1751,0.1752,0.1753,0.1717,0.1715,0.1713,0,0,0,0,0,0,0,0,0,0,0,0,0,0.1632,0.1602,0.1632,0.1669,0.1673,0.1679,0.168,0.1682,0.175,0.1751,0.1752,0.1753,0.1718,0.1716,0.1713,0.1673,0,0,0.1705,0.1704,0,0,0,0,0,0,0,0,0.163,0.1634,0.1663,0.1666,0.167,0.1706,0.1656,0.1673,0.1749,0.1725,0.1752,0.1754,0.1702,0.1701,0.1714,0.1671,0.167,0.1705,0.1704,0.1702,0.1702,0,0,0,0,0,0,0,0.1628,0.1632,0.1655,0.1663,0.1668,0.1683,0.1689,0.1661,0.1708,0.1727,0.1731,0.1729,0.1704,0.1717,0.1713,0.1669,0.1705,0.1703,0.1701,0.17,0.1683,0.1684,0,0,0,0,0,0,0.1612,0.163,0.1653,0.1656,0.1648,0.1682,0.169,0.1697,0.171,0.1713,0.1728,0.1732,0.172,0.1716,0.1712,0.1725,0.1702,0.17,0.1699,0.1682,0.1684,0.1685,0,0,0,0,0,0,0.1612,0.1614,0.1651,0.164,0.1645,0.1681,0.1689,0.1697,0.173,0.1711,0.1713,0.1755,0.1721,0.1716,0.1706,0.1721,0.1699,0.1697,0.1681,0.1683,0.1684,0.171,0,0,0,0,0,0,0.1611,0.1614,0.1635,0.1639,0.1645,0.1647,0.1688,0.1697,0.1724,0.1731,0.1733,0.1731,0.1722,0.171,0.1704,0.1717,0.1695,0.168,0.1682,0.1684,0.1708,0.1712,0.1716,0,0,0,0,0,0.161,0.1631,0.1635,0.1639,0.1666,0.1645,0.165,0.1682,0.1724,0.1722,0.1743,0.1732,0.1719,0.1708,0.17,0.1714,0.1679,0.1681,0.1684,0.1706,0.1711,0.1716,0,0,0,0,0,0,0.1629,0.1639,0.1645,0.1669,0.165,0.1655,0.1678,0.169,0.171,0.173,0.1729,0.1725,0.173,0.1716,0.1704,0.1719,0.1703,0.1704,0.1723,0.1728,0.1732,0.1749,0.1692,0,0,0,0,0,0.1638,0.1637,0.1645,0.1641,0.1661,0.1672,0.168,0.1684,0.1691,0.1706,0.1704,0.1717,0.173,0.1725,0.172,0.1709,0.1719,0.172,0.1724,0.1728,0.1739,0.1772,0.178,0.1693,0.1693,0.1693,0,0,0.1623,0.1635,0.1628,0.1641,0.1653,0.1662,0.1682,0.1684,0.1686,0.1692,0.1711,0.1722,0.1732,0.1737,0.1738,0.1726,0.1758,0.1731,0.1734,0.1743,0.1776,0.1784,0.1792,0.1694,0.1694,0.1694,0,0,0.1604,0.1632,0.1646,0.1642,0.1652,0.1654,0.1657,0.1668,0.1688,0.1682,0.1714,0.1741,0.1726,0.1754,0.1767,0.1789,0.1781,0.1785,0.1811,0.1842,0.185,0.1857,0.1875,0.1884,0.1783,0.1783,0.1783,0,0.1607,0.1615,0.1635,0.1657,0.166,0.1657,0.167,0.1678,0.1667,0.169,0.1687,0.1739,0.1745,0.1791,0.1813,0.1799,0.1808,0.1787,0.1848,0.1855,0.1861,0.1879,0.1888,0.1785,0.1784,0.1784,0.1784,0,0.1601,0.1613,0.1622,0.1646,0.1654,0.1641,0.1661,0.1659,0.168,0.1699,0.174,0.1755,0.1795,0.1803,0.1816,0.1872,0.186,0.1851,0.1833,0.1871,0.1888,0.1896,0.1787,0.1786,0.1786,0.1785,0,0,0.1582,0.1618,0.1611,0.1628,0.1647,0.1642,0.1659,0.1681,0.171,0.1715,0.1765,0.1811,0.1841,0.186,0.1877,0.1907,0.1966,0.1901,0.1902,0.1916,0.2028,0.1934,0.1934,0.1962,0.1964,0.1965,0.2019,0,0.1571,0.1597,0.1615,0.1611,0.1646,0.1649,0.166,0.1678,0.1706,0.1743,0.1797,0.1847,0.1856,0.1885,0.192,0.1958,0.1991,0.1952,0.1992,0.1993,0.1902,0.1942,0.1758,0.1782,0.2027,0.2028,0.2029,0,0.157,0.1589,0.1607,0.1623,0.1642,0.1634,0.1665,0.1678,0.1741,0.1764,0.1829,0.1876,0.195,0.194,0.2024,0.1995,0.2024,0.2042,0.2044,0.1955,0.1915,0.1786,0.1789,0.2044,0.2043,0.2042,0.2041,0,0.1557,0.1575,0.1584,0.1587,0.1618,0.1626,0.1643,0.1698,0.1725,0.1802,0.1838,0.1914,0.1967,0.201,0.2067,0.2051,0.214,0.2119,0.206,0.2053,0.1905,0.1881,0.2182,0.2182,0.2182,0.2181,0.2181,0,0.1542,0.154,0.1575,0.1579,0.1585,0.1633,0.1656,0.1675,0.1737,0.1784,0.1869,0.1903,0.199,0.2054,0.2083,0.2096,0.2157,0.2076,0.2065,0.1907,0.1884,0.2116,0.2107,0.2183,0.2183,0.2183,0.2182,0,0.1509,0.153,0.1546,0.1577,0.1585,0.16,0.1643,0.1665,0.1732,0.1794,0.1826,0.1919,0.1983,0.2055,0.2128,0.2112,0.2134,0.2126,0.1928,0.1892,0.2021,0.2013,0.2057,0.2054,0.2052,0.205,0.2048,0,0.149,0.1501,0.1531,0.154,0.1548,0.1577,0.1592,0.1646,0.1677,0.1788,0.1811,0.1911,0.1939,0.2005,0.1997,0.2014,0.2092,0.1854,0.1788,0.2025,0.2011,0.2007,0.2003,0.1608,0.1603,0.1599,0.1595,0,0.146,0.1471,0.1481,0.1497,0.1511,0.152,0.1556,0.1568,0.1648,0.1687,0.1735,0.1774,0.1839,0.1756,0.1788,0.1775,0.1828,0.1766,0.2083,0.1657,0.1603,0.1588,0.1599,0.1558,0.1562,0.1564,0.1566,0.1568,0.1432,0.1416,0.1435,0.1438,0.1456,0.1456,0.1442,0.1473,0.1487,0.1521,0.1608,0.1598,0.1614,0.1544,0.15,0.1473,0.1608,0.1532,0.1545,0.1562,0.1489,0.1433,0.1343,0.1345,0.1347,0.1349,0.1351,0,0.1398,0.1379,0.1377,0.1371,0.1353,0.1394,0.1401,0.1357,0.133,0.1373,0.1383,0.1265,0.1202,0.1235,0.1123,0.1116,0.1115,0.1069,0.1051,0.1088,0.1122,0.1027,0.0758,0.0756,0.0754,0.0753,0,0,0.1377,0.1345,0.133,0.1273,0.1273,0.1231,0.1223,0.1156,0.1142,0.1076,0.1055,0.1145,0.1183,0.0961,0.0921,0.0817,0.095,0.0778,0.1252,0.1267,0.1298,0.1382,0.1277,0,0,0,0,0]},{"header":{"parameterUnit":"m.s-1","parameterCategory":2,"la1":30.2991,"la2":30.254,"lo1":-89.0895,"lo2":-89.0444,"dx":0.0017,"dy":0.0017,"nx":28,"ny":28,"refTime":"2022-12-07T03:00:00:Z","depth":"2","parameterNumber":3,"parameterNumberName":"V-component_of_CURRENTS"},"data":[0,0,0,0,0,0,0,0,0,0,0,0,0,0,0,0,0,0,0,0,0,0,0,0,0,0,0,0,0,0,0,0,0,0,0,0,0,0,0,0,0,0,0,0,0,0,0,0,0,0,0,0,0,0,0,0,0,0,0.0261,0.0261,0,0.024,0.024,0.0239,0.0208,0.0208,0.0208,0.0208,0.0189,0.0189,0.0188,0,0,0,0,0,0,0,0,0,0,0,0,0,0.023,0.0231,0.0261,0.0261,0.0261,0.0241,0.024,0.0239,0.0208,0.0208,0.0208,0.0208,0.0189,0.0189,0.0188,0,0,0,0,0,0,0,0,0,0,0,0,0,0.0224,0.0231,0.0261,0.0248,0.0247,0.0241,0.024,0.0239,0.0208,0.0208,0.0208,0.0208,0.019,0.0189,0.0188,0.0184,0,0,0.0186,0.0186,0,0,0,0,0,0,0,0,0.0225,0.0225,0.0249,0.0249,0.0248,0.0232,0.0223,0.0223,0.0208,0.0216,0.0208,0.0208,0.0208,0.0205,0.0193,0.0183,0.0182,0.0186,0.0185,0.0185,0.0185,0,0,0,0,0,0,0,0.0225,0.0225,0.0246,0.025,0.0249,0.0229,0.0228,0.0222,0.0207,0.0215,0.0215,0.0222,0.0206,0.0194,0.0192,0.0182,0.0186,0.0185,0.0185,0.0184,0.0174,0.0174,0,0,0,0,0,0,0.0242,0.0226,0.0247,0.0246,0.0243,0.023,0.0229,0.0232,0.0207,0.0205,0.0222,0.0221,0.0195,0.0193,0.0192,0.0203,0.0185,0.0184,0.0184,0.0174,0.0174,0.0174,0,0,0,0,0,0,0.0242,0.0244,0.0248,0.0241,0.0241,0.0232,0.0235,0.0232,0.0221,0.0214,0.021,0.0217,0.0195,0.0193,0.0183,0.0201,0.0184,0.0183,0.0174,0.0174,0.0174,0.0213,0,0,0,0,0,0,0.0241,0.0244,0.0246,0.0242,0.0242,0.0253,0.0236,0.0232,0.0229,0.0227,0.0208,0.0206,0.0195,0.0184,0.0183,0.02,0.0183,0.0174,0.0174,0.0174,0.0212,0.0215,0.0218,0,0,0,0,0,0.024,0.0243,0.0246,0.0249,0.0247,0.0254,0.0251,0.024,0.0229,0.0229,0.0209,0.0207,0.0185,0.0184,0.0181,0.0199,0.0174,0.0174,0.0174,0.0211,0.0214,0.0217,0,0,0,0,0,0,0.0231,0.0241,0.0244,0.025,0.0259,0.0251,0.0248,0.0243,0.0225,0.0222,0.0204,0.0201,0.02,0.019,0.0189,0.0196,0.0181,0.0181,0.021,0.0213,0.0216,0.0224,0.0182,0,0,0,0,0,0.0233,0.0244,0.0249,0.0262,0.0259,0.0253,0.0252,0.0253,0.0243,0.0234,0.0223,0.0209,0.02,0.0198,0.0188,0.0191,0.0177,0.0201,0.0204,0.0207,0.0211,0.0197,0.0199,0.0176,0.0176,0.0176,0,0,0.0242,0.0247,0.0256,0.0262,0.0259,0.0267,0.025,0.0258,0.027,0.0237,0.0237,0.0218,0.0201,0.0202,0.0202,0.0197,0.0206,0.0207,0.021,0.0212,0.0197,0.0199,0.0201,0.0176,0.0176,0.0176,0,0,0.0261,0.0258,0.0269,0.0272,0.0281,0.0281,0.0287,0.0283,0.028,0.0283,0.0259,0.0249,0.0238,0.0228,0.0221,0.0233,0.0219,0.0233,0.0259,0.0245,0.0247,0.0248,0.0237,0.0237,0.0238,0.0238,0.0238,0,0.0263,0.0282,0.0275,0.028,0.0291,0.029,0.0304,0.0303,0.0302,0.0303,0.0292,0.0268,0.0252,0.025,0.0251,0.0242,0.0229,0.0249,0.025,0.0251,0.0252,0.0239,0.0239,0.024,0.024,0.024,0.024,0,0.0291,0.0301,0.0305,0.0317,0.0325,0.0341,0.0345,0.0354,0.0352,0.0349,0.0347,0.0318,0.0305,0.03,0.0278,0.028,0.0267,0.0253,0.0243,0.0256,0.0242,0.0241,0.0243,0.0242,0.0242,0.0241,0,0,0.0307,0.0321,0.0326,0.0336,0.0347,0.036,0.0381,0.0397,0.0411,0.0401,0.0412,0.0385,0.0364,0.0353,0.0327,0.0314,0.0306,0.0288,0.0286,0.0281,0.0275,0.0263,0.026,0.029,0.029,0.029,0.0264,0,0.033,0.0356,0.036,0.0394,0.0401,0.0409,0.043,0.0446,0.0449,0.0457,0.0431,0.0427,0.0387,0.0382,0.036,0.032,0.0304,0.0314,0.0259,0.0258,0.0249,0.0259,0.0273,0.0251,0.0263,0.0263,0.0263,0,0.0353,0.0368,0.0402,0.043,0.0434,0.0456,0.0492,0.0512,0.0519,0.0522,0.0509,0.0483,0.0461,0.0426,0.0367,0.0374,0.0327,0.0294,0.0292,0.0267,0.0244,0.0238,0.0248,0.0261,0.0261,0.0261,0.0261,0,0.0371,0.0398,0.0432,0.0439,0.0468,0.0488,0.0509,0.0527,0.0554,0.056,0.058,0.0537,0.053,0.0465,0.0389,0.0377,0.0325,0.0302,0.0247,0.0246,0.024,0.0238,0.0259,0.0259,0.026,0.026,0.026,0,0.0392,0.0415,0.0441,0.0456,0.0501,0.0508,0.0555,0.0574,0.0604,0.0645,0.0609,0.0632,0.0538,0.0495,0.0413,0.0331,0.0342,0.0255,0.0239,0.0254,0.0254,0.0246,0.0245,0.0259,0.0259,0.0259,0.0259,0,0.0404,0.0422,0.0453,0.0489,0.0508,0.0537,0.0596,0.063,0.0656,0.0712,0.0721,0.0704,0.0651,0.0554,0.0455,0.0374,0.0291,0.0257,0.0282,0.0269,0.0213,0.0214,0.0194,0.0194,0.0193,0.0193,0.0193,0,0.0413,0.043,0.048,0.051,0.0528,0.0575,0.0617,0.0656,0.0701,0.0762,0.0796,0.0764,0.0753,0.0604,0.0459,0.0321,0.0296,0.0236,0.0212,0.022,0.0207,0.0209,0.0211,0.0221,0.0221,0.0221,0.0221,0,0.0423,0.0441,0.0474,0.0538,0.0584,0.0643,0.0703,0.0751,0.0809,0.0857,0.091,0.0904,0.0779,0.0644,0.0455,0.0357,0.0257,0.023,0.0238,0.0234,0.0243,0.023,0.0232,0.022,0.022,0.022,0.022,0.022,0.0431,0.0458,0.0507,0.0569,0.063,0.0709,0.0758,0.0827,0.0904,0.0969,0.0973,0.0955,0.0825,0.0572,0.0425,0.0255,0.026,0.0189,0.019,0.0192,0.0199,0.0206,0.0177,0.0177,0.0177,0.0177,0.0177,0,0.044,0.048,0.0539,0.0614,0.0681,0.0714,0.0818,0.086,0.0946,0.099,0.1017,0.0877,0.0749,0.0587,0.0348,0.0212,0.0198,0.0156,0.0176,0.0178,0.018,0.0187,0.0161,0.0161,0.016,0.016,0,0,0.0448,0.0499,0.0534,0.0641,0.07,0.0785,0.0843,0.0908,0.0953,0.0975,0.0957,0.0941,0.0778,0.0598,0.0428,0.0294,0.0259,0.0258,0.0285,0.0333,0.0336,0.0216,0.0231,0,0,0,0,0]}],[{"header":{"parameterUnit":"m.s-1","parameterCategory":2,"la1":30.2991,"la2":30.254,"lo1":-89.0895,"lo2":-89.0444,"dx":0.0017,"dy":0.0017,"nx":28,"ny":28,"refTime":"2022-12-07T03:00:00:Z","depth":"4","parameterNumber":2,"parameterNumberName":"U-component_of_CURRENTS"},"data":[0,0,0,0,0,0,0,0,0,0,0,0,0,0,0,0,0,0,0,0,0,0,0,0,0,0,0,0,0,0,0,0,0,0,0,0,0,0,0,0,0,0,0,0,0,0,0,0,0,0,0,0,0,0,0,0,0,0,0.0659,0.066,0,0.0715,0.0715,0.0715,0.0747,0.0748,0.0748,0.0749,0.0828,0.083,0.0832,0,0,0,0,0,0,0,0,0,0,0,0,0,0.063,0.063,0.0659,0.066,0.0661,0.0714,0.0715,0.0715,0.0747,0.0748,0.0748,0.0749,0.0828,0.083,0.0832,0,0,0,0,0,0,0,0,0,0,0,0,0,0.0656,0.063,0.0659,0.0687,0.069,0.0714,0.0715,0.0715,0.0747,0.0748,0.0748,0.0749,0.0827,0.083,0.0832,0.0832,0,0,0.084,0.0841,0,0,0,0,0,0,0,0,0.0654,0.0656,0.0681,0.0685,0.0689,0.0728,0.0734,0.0757,0.0747,0.0721,0.0749,0.0749,0.0799,0.0804,0.0807,0.0836,0.084,0.084,0.0841,0.0843,0.0843,0,0,0,0,0,0,0,0.0652,0.0654,0.0677,0.0683,0.0687,0.0714,0.0717,0.0738,0.0752,0.0723,0.0727,0.0739,0.0801,0.0804,0.0809,0.0841,0.084,0.0842,0.0844,0.0845,0.0954,0.0955,0,0,0,0,0,0,0.065,0.0652,0.0675,0.0679,0.0678,0.0713,0.0717,0.0711,0.0752,0.076,0.0738,0.0741,0.08,0.0806,0.0812,0.0874,0.0843,0.0845,0.0846,0.0953,0.0954,0.0956,0,0,0,0,0,0,0.0649,0.0651,0.0673,0.0671,0.0677,0.0713,0.0706,0.0712,0.0733,0.0764,0.0772,0.0756,0.08,0.0809,0.0851,0.0876,0.0846,0.0848,0.0951,0.0953,0.0955,0.0961,0,0,0,0,0,0,0.0647,0.0649,0.0646,0.067,0.0677,0.0696,0.0706,0.0713,0.0741,0.0744,0.0782,0.0789,0.0802,0.0847,0.0853,0.0879,0.085,0.0949,0.0952,0.0955,0.0959,0.0963,0.0967,0,0,0,0,0,0.0646,0.0644,0.0645,0.0649,0.0669,0.0696,0.0701,0.0728,0.0741,0.0749,0.0782,0.0788,0.0869,0.085,0.0857,0.0884,0.0948,0.0951,0.0954,0.0958,0.0963,0.0967,0,0,0,0,0,0,0.0643,0.0648,0.065,0.0652,0.0675,0.0704,0.0726,0.0736,0.0765,0.078,0.08,0.081,0.0857,0.0871,0.085,0.0925,0.0912,0.0917,0.0912,0.0917,0.0921,0.093,0.0852,0,0,0,0,0,0.0636,0.0625,0.0648,0.0651,0.0671,0.0698,0.0714,0.0731,0.0762,0.0776,0.0801,0.0838,0.0872,0.0895,0.0923,0.096,0.0972,0.0986,0.0989,0.0992,0.1007,0.1037,0.1044,0.0966,0.0966,0.0966,0,0,0.064,0.0639,0.0636,0.0648,0.0676,0.0701,0.071,0.0745,0.0764,0.0781,0.0823,0.085,0.0885,0.0928,0.0951,0.0946,0.1021,0.0996,0.0998,0.1012,0.1041,0.1048,0.1055,0.0969,0.0968,0.0968,0,0,0.0647,0.0644,0.0646,0.0667,0.0703,0.0715,0.0728,0.0765,0.0785,0.0822,0.0844,0.0888,0.0933,0.0964,0.0986,0.1029,0.1037,0.1042,0.1071,0.11,0.1106,0.1112,0.113,0.1137,0.1047,0.1047,0.1047,0,0.0658,0.0652,0.0656,0.0678,0.07,0.0724,0.075,0.0772,0.0813,0.0835,0.0842,0.0927,0.0953,0.1012,0.1033,0.1038,0.1052,0.1046,0.1103,0.1109,0.1115,0.1132,0.114,0.1047,0.1047,0.1047,0.1047,0,0.0667,0.0677,0.0694,0.0711,0.0732,0.0762,0.0794,0.082,0.0845,0.0866,0.093,0.0968,0.1022,0.1037,0.1052,0.1112,0.1107,0.1098,0.1086,0.1123,0.1139,0.1147,0.1048,0.1048,0.1048,0.1048,0,0,0.0665,0.069,0.07,0.0715,0.0753,0.0771,0.0811,0.0849,0.0883,0.0926,0.0972,0.1038,0.1065,0.1093,0.1117,0.1148,0.1197,0.1148,0.1149,0.1155,0.1258,0.1151,0.1149,0.1195,0.1197,0.1199,0.1249,0,0.068,0.0706,0.0714,0.0752,0.0779,0.0809,0.084,0.0878,0.0914,0.0963,0.1015,0.1071,0.1084,0.112,0.1155,0.1191,0.1221,0.1184,0.1231,0.1232,0.1124,0.1156,0.1204,0.1255,0.1257,0.1258,0.1259,0,0.0686,0.0703,0.0736,0.0771,0.0789,0.0813,0.0866,0.0898,0.0967,0.1003,0.1068,0.1104,0.118,0.1174,0.1258,0.1235,0.1257,0.1273,0.1275,0.1181,0.1141,0.1215,0.1274,0.1273,0.1271,0.127,0.127,0,0.0669,0.0716,0.0732,0.075,0.0799,0.0826,0.0856,0.0918,0.0954,0.1039,0.1078,0.1156,0.1213,0.1253,0.13,0.1287,0.137,0.1351,0.1273,0.1265,0.1342,0.1336,0.1404,0.1404,0.1403,0.1403,0.1403,0,0.0664,0.0688,0.0732,0.0748,0.0783,0.0826,0.0872,0.0917,0.099,0.1034,0.1107,0.1151,0.1238,0.1291,0.1315,0.1319,0.1386,0.1287,0.1274,0.1343,0.1336,0.1347,0.134,0.1405,0.1405,0.1404,0.1404,0,0.0642,0.0669,0.0698,0.0754,0.0775,0.0804,0.0874,0.0905,0.0987,0.1049,0.1082,0.1174,0.1238,0.1299,0.1368,0.1332,0.1346,0.1329,0.1404,0.1393,0.1218,0.1211,0.1243,0.124,0.1237,0.1235,0.1233,0,0.0624,0.064,0.0693,0.0707,0.0736,0.0787,0.0815,0.0897,0.0931,0.1046,0.1067,0.1162,0.1213,0.123,0.1292,0.1319,0.1305,0.1296,0.1254,0.1219,0.1204,0.1201,0.1198,0.1229,0.1228,0.1227,0.1226,0,0.0604,0.0626,0.0646,0.0673,0.0703,0.0729,0.0783,0.0804,0.0898,0.0983,0.1031,0.1065,0.1129,0.1172,0.1205,0.122,0.129,0.1266,0.1272,0.1232,0.1202,0.1189,0.1189,0.1217,0.1218,0.1219,0.122,0,0.0585,0.0587,0.0609,0.0626,0.0656,0.066,0.0695,0.0737,0.0785,0.0918,0.0929,0.1027,0.1117,0.112,0.1147,0.1155,0.1135,0.1087,0.1102,0.1113,0.1045,0.0985,0.093,0,0,0,0,0,0.0568,0.0555,0.056,0.0565,0.0588,0.0609,0.0664,0.0703,0.0803,0.081,0.0871,0.0923,0.0965,0.1011,0.0994,0.1081,0.1134,0.1053,0.1085,0.1163,0.1174,0.1105,0,0,0,0,0,0,0.0551,0.0554,0.054,0.051,0.0507,0.0523,0.0558,0.062,0.0633,0.0743,0.0776,0.0854,0.0916,0.0974,0.0976,0.0989,0.0984,0.1116,0.1112,0.1157,0.1167,0.1176,0.1108,0,0,0,0,0]},{"header":{"parameterUnit":"m.s-1","parameterCategory":2,"la1":30.2991,"la2":30.254,"lo1":-89.0895,"lo2":-89.0444,"dx":0.0017,"dy":0.0017,"nx":28,"ny":28,"refTime":"2022-12-07T03:00:00:Z","depth":"4","parameterNumber":3,"parameterNumberName":"V-component_of_CURRENTS"},"data":[0,0,0,0,0,0,0,0,0,0,0,0,0,0,0,0,0,0,0,0,0,0,0,0,0,0,0,0,0,0,0,0,0,0,0,0,0,0,0,0,0,0,0,0,0,0,0,0,0,0,0,0,0,0,0,0,0,0,0.0312,0.0313,0,0.0309,0.0309,0.0308,0.0302,0.0302,0.0302,0.0303,0.029,0.029,0.0289,0,0,0,0,0,0,0,0,0,0,0,0,0,0.0258,0.0259,0.0312,0.0313,0.0313,0.0309,0.0309,0.0308,0.0302,0.0302,0.0302,0.0303,0.0291,0.029,0.0289,0,0,0,0,0,0,0,0,0,0,0,0,0,0.0266,0.0259,0.0312,0.0313,0.0314,0.0309,0.0309,0.0308,0.0301,0.0302,0.0302,0.0303,0.0291,0.029,0.0289,0.0273,0,0,0.0286,0.0286,0,0,0,0,0,0,0,0,0.0266,0.0267,0.0313,0.0313,0.0314,0.0311,0.0285,0.0298,0.0301,0.0301,0.0303,0.0303,0.0299,0.0298,0.0289,0.0272,0.0272,0.0286,0.0285,0.0285,0.0285,0,0,0,0,0,0,0,0.0265,0.0267,0.0306,0.0313,0.0314,0.0295,0.0297,0.0287,0.0293,0.0301,0.0302,0.0309,0.0299,0.029,0.0288,0.0272,0.0286,0.0285,0.0284,0.0284,0.0258,0.0258,0,0,0,0,0,0,0.0279,0.0267,0.0306,0.0306,0.0296,0.0297,0.0298,0.0307,0.0293,0.0293,0.0309,0.0309,0.0291,0.029,0.0288,0.029,0.0285,0.0284,0.0283,0.0258,0.0258,0.0258,0,0,0,0,0,0,0.0277,0.0282,0.0306,0.029,0.0293,0.0298,0.0307,0.0307,0.0306,0.0301,0.0299,0.0311,0.0291,0.0289,0.0283,0.0289,0.0284,0.0283,0.0258,0.0258,0.0258,0.028,0,0,0,0,0,0,0.0276,0.0281,0.0291,0.0292,0.0295,0.0305,0.0307,0.0307,0.0312,0.0312,0.0301,0.03,0.0292,0.0285,0.0282,0.0287,0.0282,0.0258,0.0258,0.0258,0.0279,0.028,0.0281,0,0,0,0,0,0.0274,0.0286,0.0292,0.0297,0.0309,0.0305,0.0304,0.0305,0.0312,0.0307,0.0303,0.0301,0.0282,0.0284,0.0281,0.0286,0.0258,0.0258,0.0258,0.0279,0.028,0.0281,0,0,0,0,0,0,0.0266,0.0287,0.0293,0.0311,0.031,0.0306,0.0309,0.0309,0.0301,0.0306,0.0298,0.0296,0.0292,0.0283,0.0286,0.0277,0.027,0.0269,0.0287,0.0288,0.0289,0.0294,0.0281,0,0,0,0,0,0.0271,0.0288,0.0295,0.031,0.0312,0.0311,0.0312,0.0312,0.0308,0.0305,0.03,0.0294,0.0286,0.0284,0.0273,0.0268,0.0251,0.0269,0.027,0.0271,0.0272,0.0246,0.0245,0.0257,0.0257,0.0257,0,0,0.0275,0.0289,0.0299,0.031,0.0311,0.0314,0.0311,0.0315,0.0318,0.0305,0.0307,0.0297,0.0285,0.0278,0.0276,0.0274,0.0259,0.027,0.0272,0.0272,0.0245,0.0244,0.0243,0.0256,0.0256,0.0256,0,0,0.0286,0.0301,0.0315,0.0313,0.0321,0.032,0.0324,0.0322,0.0321,0.0319,0.0313,0.0304,0.0295,0.0285,0.028,0.0279,0.0264,0.0279,0.029,0.0265,0.0264,0.0263,0.0241,0.0238,0.0281,0.0281,0.0281,0,0.0287,0.0309,0.0315,0.032,0.0326,0.0326,0.0332,0.0329,0.0324,0.0326,0.0325,0.0309,0.0297,0.0291,0.029,0.0282,0.0266,0.0288,0.0267,0.0265,0.0263,0.0242,0.0238,0.0282,0.0282,0.0282,0.0282,0,0.0302,0.0317,0.0323,0.0337,0.0338,0.0343,0.0344,0.0346,0.0351,0.0347,0.0343,0.0323,0.0316,0.0309,0.03,0.0286,0.0278,0.027,0.0265,0.0264,0.0241,0.0236,0.0283,0.0283,0.0283,0.0283,0,0,0.0308,0.0331,0.0334,0.0344,0.0348,0.0352,0.036,0.0365,0.0376,0.0364,0.0371,0.035,0.0342,0.0334,0.032,0.0297,0.027,0.0282,0.028,0.0264,0.0215,0.0208,0.0202,0.0258,0.0258,0.0257,0.0204,0,0.0317,0.0338,0.0346,0.0364,0.0373,0.0375,0.0385,0.0388,0.0389,0.0392,0.0373,0.0372,0.0351,0.0351,0.0324,0.0285,0.0259,0.0285,0.0216,0.0214,0.0211,0.0197,0.0255,0.0201,0.02,0.0199,0.0199,0,0.0326,0.0342,0.0364,0.0387,0.0391,0.0402,0.0422,0.043,0.043,0.0431,0.0421,0.0406,0.0379,0.0361,0.0291,0.0309,0.0264,0.0229,0.0226,0.0209,0.0199,0.0201,0.019,0.0191,0.0192,0.0192,0.0193,0,0.0333,0.0354,0.0379,0.0383,0.0405,0.0419,0.0435,0.0442,0.0459,0.0457,0.0466,0.0428,0.0418,0.0354,0.0285,0.0287,0.0202,0.0196,0.0145,0.0145,0.0158,0.016,0.014,0.014,0.014,0.014,0.014,0,0.0339,0.0356,0.0386,0.0398,0.0429,0.0437,0.047,0.0479,0.0495,0.0515,0.049,0.049,0.0415,0.0361,0.029,0.0204,0.0204,0.0143,0.0128,0.0169,0.0172,0.0155,0.0157,0.0138,0.0139,0.0139,0.0139,0,0.0339,0.0359,0.0385,0.0418,0.0434,0.0455,0.0502,0.0524,0.0537,0.0562,0.0566,0.0534,0.0466,0.0383,0.0278,0.0218,0.0133,0.0101,0.0152,0.0141,0.0091,0.0095,0.0041,0.004,0.004,0.0039,0.0039,0,0.0339,0.0355,0.0403,0.0425,0.0442,0.0481,0.0514,0.0544,0.0568,0.0586,0.0596,0.0549,0.0515,0.0364,0.0272,0.0135,0.0115,0.0068,0.0075,0.0089,0.008,0.0085,0.009,0.0038,0.0038,0.0037,0.0037,0,0.0334,0.0357,0.0383,0.0434,0.0471,0.0516,0.0562,0.0582,0.0618,0.0631,0.0618,0.0551,0.0476,0.0363,0.0258,0.0159,0.0097,0.0061,0.0062,0.0068,0.0084,0.0077,0.0082,0.0035,0.0035,0.0036,0.0036,0,0.0331,0.0346,0.0391,0.0434,0.0486,0.0535,0.056,0.0591,0.0619,0.0637,0.0628,0.0556,0.0516,0.0375,0.0276,0.0181,0.0157,0.012,0.0117,0.0119,0.0156,0.0189,0.0155,0,0,0,0,0,0.0322,0.0346,0.0388,0.0438,0.0493,0.0528,0.0588,0.0609,0.0643,0.0635,0.0635,0.0565,0.0433,0.0377,0.028,0.0257,0.0135,0.0139,0.009,0.0023,0.0025,0.0055,0,0,0,0,0,0,0.0316,0.0354,0.0382,0.0442,0.0476,0.054,0.0579,0.0601,0.0598,0.0614,0.0545,0.0528,0.0398,0.0483,0.0272,0.0246,0.0198,0.0083,0.0081,0.0021,0.0024,0.0026,0.0057,0,0,0,0,0]}]]